Location: Alvis C Story Elementary School
(33.0968°N, 96.6364°W)
Time: 13:49:30
(UTC+00:00)

Cosmos 1092 Rocket - Pass Details

Date: 08 December 2021
Orbit: 953 x 996 km, 83.0° (Epoch: 25 January)

Event Time Altitude Azimuth Distance (km) Brightness Sun altitude
Rises 12:46:39 0° 201° (SSW) 3,652 7.0 -6.7°
Reaches altitude 10° 12:49:15 10° 207° (SSW) 2,714 6.3 -6.2°
Maximum altitude 12:55:12 46° 280° (W) 1,291 4.3 -5.1°
Drops below altitude 10° 13:01:15 10° 353° (N) 2,754 6.1 -3.9°
Sets 13:03:54 0° 359° (N) 3,711 6.8 -3.4°
